The Dalles, WA

4:28 PM PST on November 11, 2019 (GMT -0800)
Columbia Gorge Regional-The Dalles

Weather History for KDLS - September, 2019

Change the Weather History Date:

Friday, September 27, 2019

  Actual Average Record
Temperature  
Mean Temperature 59 °F -  
Max Temperature 66 °F 76 °F 93 °F (1963)
Min Temperature 51 °F 48 °F 31 °F (1972)
Degree Days  
Heating Degree Days 6    
Growing Degree Days 9 (Base 50)    
Moisture  
Dew Point 43 °F    
Average Humidity 57    
Maximum Humidity 70    
Minimum Humidity 39    
Precipitation  
Precipitation 0.00 in - - ()
Sea Level Pressure  
Sea Level Pressure 29.89 in    
Wind  
Wind Speed 17 mph (WNW)    
Max Wind Speed 31 mph    
Max Gust Speed 41 mph    
Visibility 10 miles    
Events      
Averages and records for this station are not official NWS values.
T = Trace of Precipitation, MM = Missing Value Source: NWS Daily Summary

Daily Weather History Graph

Daily Weather History Graph

Search for Another Location

Airport or City:

Astronomy

Sep. 27, 2019 Rise Set
Actual Time 6:57 AM PDT 6:52 PM PDT
Civil Twilight 6:28 AM PDT 7:22 PM PDT
Nautical Twilight 5:53 AM PDT 7:56 PM PDT
Astronomical Twilight 5:18 AM PDT 8:32 PM PDT
Moon 5:17 AM PDT (9/27) 6:52 PM PDT (9/27)
Length of Visible Light 12h 54m
Length of Day
11h 55m
Waning Crescent, 1% of the Moon is Illuminated
Sep 27
Waning Crescent
Sep 28
New
Oct 5
First Quarter
Oct 13
Full
Oct 21
Last Quarter

Hourly Weather History & Observations

Time (PDT) Temp. Dew Point Humidity Pressure Visibility Wind Dir Wind Speed Gust Speed Precip Events Conditions
12:53 AM 61.0 °F 48.0 °F 62% 29.92 in 10.0 mi WNW 16.1 mph 21.9 mph N/A   Clear
1:53 AM 61.0 °F 48.0 °F 62% 29.93 in 10.0 mi WNW 19.6 mph 26.5 mph N/A   Clear
2:53 AM 59.0 °F 48.0 °F 67% 29.94 in 10.0 mi WNW 15.0 mph 25.3 mph N/A   Clear
3:53 AM 57.9 °F 48.0 °F 70% 29.94 in 10.0 mi WNW 16.1 mph 20.7 mph N/A   Clear
4:53 AM 57.9 °F 46.0 °F 65% 29.94 in 10.0 mi WNW 10.4 mph - N/A   Clear
5:53 AM 57.0 °F 44.1 °F 62% 29.94 in 10.0 mi WNW 17.3 mph - N/A   Clear
6:53 AM 57.0 °F 39.9 °F 53% 29.93 in 10.0 mi WNW 16.1 mph - N/A   Clear
7:53 AM 55.9 °F 41.0 °F 57% 29.94 in 10.0 mi WNW 13.8 mph 23.0 mph N/A   Clear
8:53 AM 59.0 °F 42.1 °F 53% 29.94 in 10.0 mi WNW 16.1 mph - N/A   Clear
9:53 AM 60.1 °F 39.9 °F 47% 29.96 in 10.0 mi WNW 26.5 mph 36.8 mph N/A   Clear
10:53 AM 64.0 °F 39.9 °F 41% 29.93 in 10.0 mi West 25.3 mph 35.7 mph N/A   Clear
11:53 AM 64.9 °F 39.0 °F 39% 29.92 in 10.0 mi West 31.1 mph 41.4 mph N/A   Clear
12:53 PM 63.0 °F 37.9 °F 40% 29.92 in 10.0 mi West 26.5 mph 35.7 mph N/A   Clear
1:53 PM 64.0 °F 39.0 °F 40% 29.89 in 10.0 mi WNW 19.6 mph 27.6 mph N/A   Clear
2:53 PM 62.1 °F 43.0 °F 50% 29.88 in 10.0 mi WNW 20.7 mph 28.8 mph N/A   Partly Cloudy
3:53 PM 64.0 °F 43.0 °F 46% 29.85 in 10.0 mi West 13.8 mph - N/A   Scattered Clouds
4:53 PM 61.0 °F 45.0 °F 56% 29.84 in 10.0 mi WNW 13.8 mph - N/A   Overcast
5:53 PM 57.9 °F 44.1 °F 60% 29.84 in 10.0 mi NW 21.9 mph 27.6 mph N/A   Overcast
6:53 PM 54.0 °F 44.1 °F 69% 29.83 in 10.0 mi WNW 10.4 mph - 0.00 in   Overcast
7:53 PM 55.0 °F 43.0 °F 64% 29.82 in 10.0 mi NW 4.6 mph - N/A   Overcast
8:53 PM 55.0 °F 44.1 °F 67% 29.81 in 10.0 mi NW 8.1 mph - N/A   Overcast
9:53 PM 55.0 °F 42.1 °F 62% 29.80 in 10.0 mi WSW 6.9 mph - N/A   Mostly Cloudy
10:53 PM 54.0 °F 41.0 °F 62% 29.80 in 10.0 mi West 10.4 mph - N/A   Overcast
11:53 PM 51.1 °F 39.0 °F 63% 29.78 in 10.0 mi West 5.8 mph - N/A   Clear